Regional Weather Roundup
Issued by NWS

Home | Current Version | Previous Version | Text Only | Print | Product List | Glossary On
Versions: 1 2 3 4 5 6 7 8 9 10 11 12 13 14 15 16 17 18 19 20 21 22 23 24 25 26 27 28 29 30 31 32 33 34 35 36 37 38 39 40 41 42 43 44 45 46 47 48 49
000
ASUS46 KSEW 301110
RWRWA

WASHINGTON REGIONAL WEATHER ROUNDUP
NATIONAL WEATHER SERVICE SEATTLE WA
400 AM PDT SAT APR 30 2016

NOTE:"FAIR" INDICATES FEW OR NO CLOUDS BELOW 12,000 FEET WITH NO
SIGNIFICANT WEATHER AND/OR OBSTRUCTIONS TO VISIBILITY.

WAZ505-507>509-301200-
SEATTLE, TACOMA, EVERETT, AND VICINITY

CITY           SKY/WX    TMP DP  RH WIND       PRES   REMARKS
EVERETT        CLEAR     47  41  80 NE5       30.30R
BOEING FIELD   CLEAR     49  45  86 CALM      30.31R
RENTON         PTCLDY    47  44  90 S3        30.31R
SEATAC AIRPORT PTCLDY    48  43  82 S5        30.31R
JBLM-MCCHORD   CLOUDY    43  43 100 S2        30.31R
PUYALLUP       CLOUDY    43  43 100 CALM      30.31R
BREMERTON      MOCLDY    39  39 100 CALM      30.32R
JBLM-FT LEWIS  MOCLDY    43  42  99 CALM      30.31R
TACOMA NARROWS MOCLDY    46  42  86 CALM      30.32R
$$

WAZ001-503-506-510-514-515-301200-
NORTH INTERIOR

CITY           SKY/WX    TMP DP  RH WIND       PRES   REMARKS
BELLINGHAM     CLEAR     45  41  86 CALM      30.29R
FRIDAY HARBOR  CLEAR     41  40  96 CALM      30.31R
EASTSOUND      CLEAR     45  41  87 CALM      30.28R
PORT ANGELES   CLEAR     45  38  76 W8        30.30R
EDIZ HOOK      FAIR      48  40  74 SW8       30.31R
PORT TOWNSEND  FAIR      41  41 100 CALM      30.32R
NAS WHIDBEY    PTCLDY    47  45  93 SE3       30.34R
ARLINGTON      CLEAR     39  34  81 CALM      30.33R VSB 1
BURLINGTON     CLEAR     43  41  93 CALM      30.31R
$$

WAZ020-022-039-040-504-511-512-301200-
SOUTHWEST INTERIOR

CITY           SKY/WX    TMP DP  RH WIND       PRES   REMARKS
SHELTON        CLOUDY    43  41  93 CALM      30.29R
OLYMPIA        CLEAR     39  37  92 CALM      30.32R FOG
CHEHALIS       CLOUDY    41  41 100 CALM      30.32R
KELSO          CLEAR     41  37  87 CALM      30.35R
VANCOUVER      CLEAR     43  40  89 NW3       30.31R
SCAPPOOSE, OR  CLEAR     45  39  79 N5        30.31R
PORTLAND, OR   PTCLDY    47  41  80 CALM      30.31R
$$

WAZ021-516-517-301200-
WASHINGTON COAST

CITY           SKY/WX    TMP DP  RH WIND       PRES   REMARKS
FORKS          CLOUDY    48  44  86 CALM      30.31R
HOQUIAM          N/A    N/A N/A N/A MISG      30.31R
ASTORIA, OR    MOCLDY    47  42  83 CALM      30.32R
$$

WAZ019-023-024-040-518-519-301200-
CASCADE MOUNTAINS AND COLUMBIA GORGE

CITY           SKY/WX    TMP DP  RH WIND       PRES   REMARKS
STAMPEDE PASS  FOG       34  32  92 VRB6      30.22R VSB 1/4
TROUTDALE, OR  CLOUDY    50  40  68 VRB3      30.31R
THE DALLES, OR CLEAR     52  41  66 NW9       30.20R
$$

WAZ026-027-041>044-520-521-301200-
EAST SLOPES

CITY           SKY/WX    TMP DP  RH WIND       PRES   REMARKS
OMAK           CLEAR     46  37  71 N9        30.14R
WENATCHEE      CLOUDY    54  34  46 NW14      30.15R
ELLENSBURG     CLOUDY    49  34  56 NW20G29   30.16R
YAKIMA         CLOUDY    55  32  41 NW7       30.16R
$$

WAZ028-034-035-301200-
COLUMBIA BASIN

CITY           SKY/WX    TMP DP  RH WIND       PRES   REMARKS
EPHRATA        MOCLDY    53  35  50 NW16      30.10R
MOSES LAKE     CLOUDY    50  38  63 NW7       30.11R
PASCO          CLOUDY    53  37  54 S5        30.14R
HERMISTON, OR  CLOUDY    51  40  65 SW8       30.15R
$$

WAZ036>038-301200-
NORTHEAST WASHINGTON

CITY           SKY/WX    TMP DP  RH WIND       PRES   REMARKS
SPOKANE GEIGER CLOUDY    47  44  90 E6        30.11R
SPOKANE FELTS  CLOUDY    48  47  96 CALM      30.12R
FAIRCHILD AFB  CLOUDY    46  46 100 NE6       30.10R
COEURDALENE,ID CLOUDY    46  43  87 NE6       30.09S
DEER PARK      LGT RAIN  46  44  93 N3        30.12R
$$

WAZ029>033-301200-
SOUTHEAST WASHINGTON

CITY           SKY/WX    TMP DP  RH WIND       PRES   REMARKS
PULLMAN        LGT RAIN  46  43  89 E8        30.13R
LEWISTON, ID   CLOUDY    50  48  93 CALM      30.12R
WALLA WALLA    CLOUDY    49  41  74 S10       30.14R
PENDLETON, OR  CLOUDY    50  36  58 W8        30.14R
$$



USA.gov is the U.S. government's official web portal to all federal, state and local government web resources and services.